This is the latest recevied weather packets stored in our database for station/object WA0LM. If no packets are shown the sender has not sent any weather packets the latest 10 day(s).
| Time | Temp. | Humidity | Pressure | Rain* | Wind** | Luminosity | Snow |
|---|---|---|---|---|---|---|---|
| 1777979720 | 0° C | 68% | 1007 hPa | 0 mm | - | 9 W/m² | - |
| 1777979417 | 0.56° C | 70% | 1007.2 hPa | 0 mm | - | 7 W/m² | - |
| 1777979114 | 0° C | 69% | 1006.9 hPa | 0 mm | - | 5 W/m² | - |
| 1777978810 | 0.56° C | 69% | 1007.2 hPa | 0 mm | - | 3 W/m² | - |
| 1777978507 | 0.56° C | 70% | 1006.8 hPa | 0 mm | - | 2 W/m² | - |
| 1777978203 | 0.56° C | 70% | 1006.8 hPa | 0 mm | - | 1 W/m² | - |
| 1777977900 | 0.56° C | 70% | 1006.8 hPa | 0 mm | - | 0 W/m² | - |
| 1777977597 | 0.56° C | 67% | 1006.8 hPa | 0 mm | - | 0 W/m² | - |
| 1777977294 | 0.56° C | 68% | 1006.9 hPa | 0 mm | - | 0 W/m² | - |
| 1777976991 | 0.56° C | 67% | 1006.8 hPa | 0 mm | - | 0 W/m² | - |
| 1777976688 | 0.56° C | 69% | 1006.8 hPa | 0 mm | - | 0 W/m² | - |
| 1777976386 | 1.11° C | 68% | 1006.7 hPa | 0 mm | - | 0 W/m² | - |
| 1777976083 | 1.11° C | 70% | 1006.8 hPa | 0 mm | - | 0 W/m² | - |
| 1777975780 | 1.11° C | 68% | 1006.8 hPa | 0 mm | - | 0 W/m² | - |
| 1777975477 | 1.11° C | 67% | 1006.8 hPa | 0 mm | - | 0 W/m² | - |
| 1777975173 | 1.11° C | 68% | 1006.8 hPa | 0 mm | - | 0 W/m² | - |
| 1777974870 | 1.67° C | 68% | 1006.9 hPa | 0 mm | - | 0 W/m² | - |
| 1777974566 | 1.67° C | 67% | 1007 hPa | 0 mm | - | 0 W/m² | - |
| 1777974264 | 1.67° C | 69% | 1006.9 hPa | 0 mm | - | 0 W/m² | - |
| 1777973960 | 1.67° C | 67% | 1006.8 hPa | 0 mm | - | 0 W/m² | - |
| 1777973656 | 1.67° C | 73% | 1006.7 hPa | 0 mm | - | 0 W/m² | - |
| 1777973353 | 1.67° C | 68% | 1006.5 hPa | 0 mm | - | 0 W/m² | - |
| 1777973051 | 1.67° C | 68% | 1006.7 hPa | 0 mm | - | 0 W/m² | - |
| 1777972749 | 1.67° C | 68% | 1006.6 hPa | 0 mm | - | 0 W/m² | - |
| 1777972446 | 1.67° C | 70% | 1006.9 hPa | 0 mm | - | 0 W/m² | - |
* Rain latest hour (hover to see other rain measurements)
** Current wind speed in m/s (hover to see current wind gust speed)